METAR LOCAUX

2020/07/10 18:00 LFST 101800Z AUTO 30008KT 9999 FEW050 OVC120 23/12 Q1016 NOSIG
2020/07/10 18:20 EDSB 101820Z VRB02KT CAVOK 22/13 Q1016
2020/07/10 18:00 LFGA 101800Z AUTO 31012KT CAVOK 24/12 Q1016
www.noaa.gov

Ne pas utiliser pour préparer ou effectuer un vol: Utilisez la documentation officielle disponible sur aviation.meteo.fr (Aéroweb)


"Le soleil du matin ne dure pas forcément toute la journée."

Animation satellite IR

Meteociel.fr

"Derrière chaque nuage se cache le ciel bleu."

Radar pluie

Infoclimat.fr

"Si tu veux l’arc-en-ciel, tu dois supporter la pluie."
Dolly Parton

Nébulosité (octas)

Meteociel.fr

"Le soleil est souvent obscurci par les nuages et la raison par les passions."
Démophile

Impacts de foudre

www.meteo60.fr

"Celui que frappe la foudre n'entend pas le tonnerre."

Vigilance météo

vigilance-meteo.fr

"Tout nuage n'enfante pas une tempête."
William Shakespeare

TAF locaux

2020/07/10 18:21 TAF LFST 101700Z 1018/1118 32010KT CAVOK PROB40 TEMPO 1022/1104 -SHRA BECMG 1104/1106 03010KT
2020/07/10 18:27 TAF EDSB 101700Z 1018/1118 36005KT 9999 SCT045 PROB30 TEMPO 1020/1102 RA
www.noaa.gov

Ne pas utiliser pour préparer ou effectuer un vol: Utilisez la documentation officielle disponible sur aviation.meteo.fr (Aéroweb)


"Les jours où le ciel est gris, le soleil n'a pas disparu à tout jamais."
Arnaud Desjardins

Prévisions 7 jours


Meteoblue.com

"Quand les crapauds chantent, le beau temps s'avance !"